User: anonymous   Login
Location: Mascot Post Office (historical)
(40.2645°N, 99.5462°W)
Time: 08:49:17
(UTC+00:00)
Language:

SeaSat 1 - Orbit

View from above orbital plane
View from above orbital plane
View from above satellite
View from above satellite

Ground track
Ground track

The orbit data is extracted from the following two-line orbital elements,

1 10967U 78064A   20273.04768112 -.00000052  00000-0  25086-4 0  9994
2 10967 108.0079 287.4685 0003007 264.8119  95.2682 14.43837186219774
Epoch (UTC): 29 September 2020 01:08:39
Eccentricity: 0.0003007
inclination: 108.0079°
perigee height: 744 km
apogee height: 748 km
right ascension of ascending node: 287.4685°
argument of perigee: 264.8119°
revolutions per day: 14.43837186
mean anomaly at epoch: 95.2682°
orbit number at epoch: 21977

The dashed part of the orbit path shows where the satellite is in the earth's shadow,  

DLR